Home > Weather > Fayetteville > Past weeks

Flag for USA Past Weather in Fayetteville, North Carolina, USA — Yesterday and Last 2 Weeks

Now
85 °F

Sunny.


Feels Like: 92 °F
Forecast: 77 / 96 °F
Wind: 9 mph from Southwest

Location: Fayetteville Regional Airport

Current Time: Jul 26, 2016 at 10:25:08 AM

Latest Report: Jul 26, 2016 at 9:53 AM


Visibility: 10 mi

Pressure: 30.00 "Hg

Humidity: 68%

Dew Point: 73 °F

Location of FayettevilleLocation

Past Weather in Fayetteville — Graph

°F

Fayetteville Temperature Yesterday

Maximum temperature yesterday: 96 °F (at 3:53 PM)
Minimum temperature yesterday: 78 °F (at 4:53 AM)
Average temperature yesterday: 86 °F

High & Low Weather Summary for the Past Weeks

 TemperatureHumidityPressure
High97 °F (Jul 14, 2:53 PM)94% (Jul 11, 6:53 PM)30.22 "Hg (Jul 11, 6:53 PM)
Low70 °F (Jul 20, 5:53 AM)32% (Jul 21, 3:53 PM)29.92 "Hg (Jul 23, 4:53 PM)
Average82 °F72%30.05 "Hg
* Reported Jul 11 8:53 AM — Jul 26 8:53 AM, Fayetteville, Weather by CustomWeather, © 2016

Note: Actual official high and low records may vary slightly from our data, if they occured in-between our weather recording intervals... More about our weather records

Advertising

Fayetteville Weather History for the Previous 24 Hours

Scroll right to see more
 ConditionsComfort  
Time TempWeatherWind HumidityBarometerVisibility
8:53 AM
Tue, Jul 26
80 °FSunny.8 mph76%30.01 "Hg10 mi
7:53 AM79 °FScattered clouds.9 mph82%30.01 "Hg10 mi
6:53 AM77 °FClear.9 mph85%30.00 "Hg10 mi
5:53 AM77 °FClear.6 mph85%29.99 "Hg10 mi
4:53 AM78 °FPassing clouds.8 mph82%29.98 "Hg10 mi
3:53 AM79 °FPassing clouds.8 mph79%29.98 "Hg10 mi
2:53 AM79 °FPassing clouds.8 mph77%29.98 "Hg10 mi
1:53 AM80 °FPassing clouds.10 mph74%29.99 "Hg10 mi
12:53 AM81 °FPassing clouds.9 mph72%30.01 "Hg10 mi
11:53 PM
Mon, Jul 25
82 °FClear.10 mph70%30.01 "Hg10 mi
10:53 PM81 °FClear.10 mph74%29.98 "Hg10 mi
9:53 PM85 °FClear.13 mph68%29.98 "Hg10 mi
8:53 PM87 °FSunny.10 mph65%29.97 "Hg10 mi
7:53 PM90 °FSunny.7 mph56%29.95 "Hg10 mi
6:53 PM92 °FSunny.14 mph52%29.93 "Hg10 mi
5:53 PM95 °FSunny.13 mph47%29.94 "Hg10 mi
4:53 PM96 °FPassing clouds.15 mph46%29.95 "Hg10 mi
3:53 PM96 °FPassing clouds.13 mph44%29.96 "Hg10 mi
2:53 PM95 °FScattered clouds.12 mph49%29.98 "Hg10 mi
1:53 PM94 °FSunny.10 mph51%29.99 "Hg10 mi
12:53 PM93 °FSunny.9 mph52%30.01 "Hg10 mi
11:53 AM92 °FSunny.8 mph54%30.03 "Hg10 mi
10:53 AM90 °FSunny.9 mph59%30.03 "Hg10 mi
Weather by CustomWeather, © 2016

See weather overviewHow to use our weather pages